TimeCDT,TemperatureF,Dew PointF,Humidity,Sea Level PressureIn,VisibilityMPH,Wind Direction,Wind SpeedMPH,Gust SpeedMPH,PrecipitationIn,Events,Conditions,WindDirDegrees,DateUTC
12:54 AM,69.1,57.0,65,29.68,10.0,SSE,9.2,-,N/A,,Overcast,150,2013-04-09 05:54:00
1:54 AM,68.0,57.0,68,29.67,10.0,SSE,10.4,-,N/A,,Overcast,150,2013-04-09 06:54:00
2:54 AM,68.0,57.0,68,29.65,10.0,SSE,9.2,-,N/A,,Overcast,150,2013-04-09 07:54:00
3:54 AM,68.0,57.0,68,29.64,10.0,SE,5.8,-,N/A,,Overcast,140,2013-04-09 08:54:00
4:54 AM,68.0,55.9,65,29.64,10.0,SE,9.2,-,N/A,,Overcast,140,2013-04-09 09:54:00
5:54 AM,68.0,55.9,65,29.65,10.0,SSE,6.9,-,N/A,,Overcast,150,2013-04-09 10:54:00
6:54 AM,68.0,57.0,68,29.67,10.0,SSE,9.2,17.3,N/A,,Overcast,160,2013-04-09 11:54:00
7:54 AM,68.0,57.0,68,29.68,10.0,SSE,6.9,-,N/A,,Overcast,160,2013-04-09 12:54:00
8:54 AM,69.1,57.0,65,29.69,10.0,SSE,10.4,17.3,N/A,,Overcast,160,2013-04-09 13:54:00
9:54 AM,69.1,57.0,65,29.74,10.0,SSW,8.1,-,N/A,,Overcast,210,2013-04-09 14:54:00
10:54 AM,66.9,57.9,73,29.76,9.0,South,5.8,-,0.00,Rain,Light Rain,180,2013-04-09 15:54:00
11:15 AM,66.2,59.0,78,29.78,8.0,South,4.6,-,0.00,Rain,Light Rain,180,2013-04-09 16:15:00
11:54 AM,68.0,59.0,73,29.76,10.0,SSE,6.9,-,0.00,,Overcast,160,2013-04-09 16:54:00
12:54 PM,69.1,57.9,68,29.75,10.0,SSE,9.2,-,N/A,,Overcast,150,2013-04-09 17:54:00
1:54 PM,72.0,59.0,64,29.73,10.0,SSE,8.1,-,N/A,,Overcast,160,2013-04-09 18:54:00
2:54 PM,71.1,59.0,66,29.72,10.0,SE,11.5,-,N/A,,Overcast,140,2013-04-09 19:54:00
3:54 PM,73.0,60.1,64,29.70,10.0,SSE,12.7,23.0,N/A,,Overcast,150,2013-04-09 20:54:00
4:54 PM,72.0,60.1,66,29.70,10.0,SSE,8.1,18.4,N/A,,Overcast,150,2013-04-09 21:54:00
5:54 PM,72.0,60.1,66,29.71,10.0,South,9.2,-,N/A,,Overcast,170,2013-04-09 22:54:00
6:54 PM,72.0,60.1,66,29.70,7.0,SE,8.1,-,N/A,,Overcast,130,2013-04-09 23:54:00
7:54 PM,72.0,61.0,68,29.70,10.0,SE,11.5,17.3,N/A,,Overcast,140,2013-04-10 00:54:00
8:54 PM,71.1,61.0,70,29.70,10.0,SE,8.1,16.1,N/A,,Overcast,130,2013-04-10 01:54:00
9:40 PM,71.6,60.8,69,29.70,10.0,SE,8.1,-,N/A,Thunderstorm,Overcast,130,2013-04-10 02:40:00
9:54 PM,71.1,61.0,70,29.70,9.0,SE,11.5,-,0.00,Rain-Thunderstorm,Light Thunderstorms and Rain,140,2013-04-10 02:54:00
10:00 PM,69.8,62.6,78,29.73,1.5,South,19.6,33.4,0.19,Rain-Thunderstorm,Thunderstorms and Rain,170,2013-04-10 03:00:00
10:04 PM,66.2,62.6,88,29.71,0.5,SE,8.1,43.7,0.47,Rain-Thunderstorm,Heavy Thunderstorms and Rain,140,2013-04-10 03:04:00
10:11 PM,69.8,62.6,78,29.71,1.0,Variable,3.5,43.7,0.48,Rain-Thunderstorm,Light Thunderstorms and Rain,0,2013-04-10 03:11:00
10:14 PM,69.8,62.6,78,29.71,4.0,SSE,5.8,-,0.48,Rain-Thunderstorm,Light Thunderstorms and Rain,150,2013-04-10 03:14:00
10:54 PM,69.1,62.1,78,29.70,10.0,South,16.1,24.2,0.48,Rain-Thunderstorm,Light Thunderstorms and Rain,170,2013-04-10 03:54:00
11:32 PM,59.0,55.4,88,29.72,6.0,NW,12.7,17.3,0.08,Rain-Thunderstorm,Light Thunderstorms and Rain,320,2013-04-10 04:32:00
11:54 PM,54.0,51.1,90,29.72,7.0,NNW,12.7,20.7,0.11,Rain-Thunderstorm,Light Rain,330,2013-04-10 04:54:00